"Pseudo-MPEC" for TTT0013

Created 2025 Feb 7 4:31:15 UT using Find_Orb

Click here for an explanation of pseudo-MPECs

 
 Astrometry: 
     TTT0013 KB2025 01 26.87047 01 09 06.09 +08 15 03.8    ~1VIHx22.5 VZNEOCPY66
     TTT0013 KB2025 01 26.87297 01 09 06.07 +08 15 07.1    ~1VIH 21.6 VZNEOCPY66
     TTT0013 KB2025 01 26.87600 01 09 06.01 +08 15 11.2    ~1VIH 21.5 VZNEOCPY66
     TTT0013*KB2025 01 27.85378 01 08 56.73 +08 31 28.3    ~1VFVx22.7 VZNEOCPY66
     TTT0013 KB2025 01 27.85536 01 08 56.73 +08 31 30.3    ~1VFV 20.8 VZNEOCPY66
     TTT0013 KB2025 01 27.85699 01 08 56.71 +08 31 32.8    ~1VFV 21.0 VZNEOCPY66
     TTT0013 KB2025 01 27.85847 01 08 56.69 +08 31 34.5    ~1VFV       ZNEOCPY66
     TTT0013 KB2025 01 27.85970 01 08 56.65 +08 31 36.0    ~1VFV       ZNEOCPY66
     TTT0013 KB2025 01 27.86074 01 08 56.63 +08 31 37.3    ~1VFV       ZNEOCPY66
     TTT0013 KB2025 01 27.86156 01 08 56.57 +08 31 37.8    ~1VFV       ZNEOCPY66
     TTT0013 KB2025 01 27.86239 01 08 56.57 +08 31 39.1    ~1VFV       ZNEOCPY66

Station data:
(Y66) Two-Meter Twin Telescope, TTT2, Teide  (N28.298728 W16.509470)  Canary
   Islands (Spain).

Orbital elements:  TTT0013
   Perihelion 2025 Feb 2.49858 TT = 11:57:57 (JD 2460708.99858)
Epoch 2025 Jan 27.0 TT = JDT 2460702.5   Earth MOID: 0.0051   Ju: 0.0345
q   0.93636338                      Ma: 0.0298   Sa: 0.0663   Ur: 0.1491
H   21.45 G 0.15   Peri.   15.64289                              AutoNEOCP
z  -0.0000615379   Node   109.93967
e   1.0000576      Incl.    1.80824                       (J2000 ecliptic)
9 of 11 observations 2025 Jan. 26-27 (23.7 hr); mean residual 0".41
Residuals in arcseconds: 
250126 Y66( .43-  1.6-)   250127 Y66  .25-  1.1-    250127 Y66  .22+  .46+    
250126 Y66  .00   .62-    250127 Y66  .05+  .26-    250127 Y66  .38-  .14+    
250126 Y66  .01-  .63+    250127 Y66  .29+  .05-    250127 Y66  .08-  .60+    
250127 Y66( .83-  1.5-)   250127 Y66  .14+  .21+    

Ephemerides (geocentric):
Date (UTC) HH   RA             Dec           delta  r     elong  mag
---- --------  ------------   ------------  ------ ------ -----  ---
2025 02 07 05  01 00 34.105   +13 21 23.17  .10432 .94010  61.0 20.8
2025 02 07 06  01 00 29.167   +13 23 21.52  .10398 .94016  60.9 20.8
2025 02 07 07  01 00 24.186   +13 25 20.57  .10364 .94023  60.9 20.8
2025 02 07 08  01 00 19.162   +13 27 20.33  .10331 .94030  60.8 20.8
2025 02 07 09  01 00 14.094   +13 29 20.80  .10297 .94037  60.8 20.8
2025 02 07 10  01 00 08.983   +13 31 22.00  .10263 .94043  60.7 20.8
2025 02 07 11  01 00 03.827   +13 33 23.93  .10229 .94050  60.7 20.8
2025 02 07 12  00 59 58.626   +13 35 26.59  .10195 .94057  60.6 20.8
2025 02 07 13  00 59 53.380   +13 37 30.00  .10161 .94064  60.6 20.8
2025 02 07 14  00 59 48.088   +13 39 34.16  .10128 .94071  60.6 20.8
2025 02 07 15  00 59 42.750   +13 41 39.07  .10094 .94078  60.5 20.8
2025 02 07 16  00 59 37.366   +13 43 44.76  .10060 .94086  60.5 20.8
2025 02 07 17  00 59 31.934   +13 45 51.22  .10026 .94093  60.4 20.8
2025 02 07 18  00 59 26.455   +13 47 58.46  .09992 .94100  60.4 20.8
2025 02 07 19  00 59 20.928   +13 50 06.49  .09958 .94108  60.3 20.8
2025 02 07 20  00 59 15.352   +13 52 15.31  .09925 .94115  60.3 20.8
2025 02 07 21  00 59 09.727   +13 54 24.94  .09891 .94123  60.2 20.8
2025 02 07 22  00 59 04.053   +13 56 35.39  .09857 .94130  60.2 20.8
2025 02 07 23  00 58 58.328   +13 58 46.65  .09823 .94138  60.1 20.7
2025 02 08 00  00 58 52.553   +14 00 58.75  .09789 .94145  60.1 20.7
2025 02 08 01  00 58 46.726   +14 03 11.69  .09756 .94153  60.1 20.7
2025 02 08 02  00 58 40.848   +14 05 25.47  .09722 .94161  60.0 20.7
2025 02 08 03  00 58 34.918   +14 07 40.10  .09688 .94169  60.0 20.7
2025 02 08 04  00 58 28.935   +14 09 55.61  .09654 .94176  59.9 20.7
2025 02 08 05  00 58 22.899   +14 12 11.98  .09620 .94184  59.9 20.7
2025 02 08 06  00 58 16.808   +14 14 29.24  .09587 .94192  59.8 20.7
2025 02 08 07  00 58 10.664   +14 16 47.38  .09553 .94200  59.8 20.7
2025 02 08 08  00 58 04.464   +14 19 06.43  .09519 .94209  59.7 20.7
2025 02 08 09  00 57 58.208   +14 21 26.39  .09485 .94217  59.7 20.7
2025 02 08 10  00 57 51.896   +14 23 47.27  .09452 .94225  59.6 20.7
2025 02 08 11  00 57 45.528   +14 26 09.08  .09418 .94233  59.6 20.7
2025 02 08 12  00 57 39.102   +14 28 31.82  .09384 .94242  59.5 20.7
2025 02 08 13  00 57 32.617   +14 30 55.52  .09350 .94250  59.5 20.7
2025 02 08 14  00 57 26.074   +14 33 20.17  .09317 .94258  59.5 20.7
2025 02 08 15  00 57 19.472   +14 35 45.80  .09283 .94267  59.4 20.7
2025 02 08 16  00 57 12.809   +14 38 12.40  .09249 .94276  59.4 20.7
2025 02 08 17  00 57 06.086   +14 40 39.99  .09215 .94284  59.3 20.7
2025 02 08 18  00 56 59.302   +14 43 08.58  .09182 .94293  59.3 20.7
2025 02 08 19  00 56 52.455   +14 45 38.18  .09148 .94302  59.2 20.7
2025 02 08 20  00 56 45.545   +14 48 08.81  .09114 .94310  59.2 20.7
2025 02 08 21  00 56 38.572   +14 50 40.47  .09081 .94319  59.1 20.7
2025 02 08 22  00 56 31.535   +14 53 13.17  .09047 .94328  59.1 20.7
2025 02 08 23  00 56 24.433   +14 55 46.93  .09013 .94337  59.0 20.7
2025 02 09 00  00 56 17.265   +14 58 21.75  .08979 .94346  59.0 20.7
2025 02 09 01  00 56 10.031   +15 00 57.66  .08946 .94355  58.9 20.7
2025 02 09 02  00 56 02.729   +15 03 34.65  .08912 .94364  58.9 20.7
2025 02 09 03  00 55 55.360   +15 06 12.75  .08878 .94374  58.8 20.7
2025 02 09 04  00 55 47.922   +15 08 51.96  .08845 .94383  58.8 20.7